Location: ???? ?????
(37.9132°N, 22.9869°E)
Time: 16:55:25
(UTC+00:00)

Atlas Centaur 2 - Pass Details

Date: 04 August 2024
Orbit: 457 x 1271 km, 30.4° (Epoch: 19 September)

Event Time Altitude Azimuth Distance (km) Brightness Sun altitude
Rises 19:48:26 0° 243° (WSW) 2,805 5.1 -22.8°
Reaches altitude 10° 19:50:41 10° 234° (SW) 2,010 4.2 -23.1°
Enters shadow 19:52:39 22° 216° (SW) 1,444 3.3 -23.3°
